GRZLY41 ETNW-ETNW

Flight info

Callsign GRZLY41
Flight time N/A
Altitude 13000
Route NW308 WUN DCT NIE Z595 REVLA NT421 WTM STAY1/0020 WTM ETNT1E OPWOT Z612 WSN Z88 HABFU DCT IPKAP WUN
Aircraft A400/H-SDE2E3FGHIJ4J5M1RWXY/S

Departure

Time 2026-04-13 18:37
Airport Wunstorf Air Base (ETNW)

Arrival

Time N/A
Airport Wunstorf Air Base (ETNW)
Time Latitude Longitude Altitude Speed Heading
2026-04-13 17:58 52.46023 9.42511 196 ft 0 kts 262°
2026-04-13 18:31 52.46022 9.42506 194 ft 3 kts 262°
2026-04-13 18:31 52.46009 9.42459 198 ft 4 kts 223°
2026-04-13 18:31 52.45952 9.42453 184 ft 10 kts 175°
2026-04-13 18:31 52.45920 9.42502 181 ft 10 kts 103°
2026-04-13 18:32 52.45922 9.42625 189 ft 12 kts 83°
2026-04-13 18:32 52.45937 9.42791 184 ft 21 kts 82°
2026-04-13 18:32 52.45959 9.43032 180 ft 21 kts 82°
2026-04-13 18:32 52.45980 9.43261 188 ft 20 kts 80°
2026-04-13 18:33 52.46000 9.43474 187 ft 19 kts 82°
2026-04-13 18:33 52.46022 9.43707 200 ft 21 kts 81°
2026-04-13 18:33 52.46048 9.43987 201 ft 25 kts 81°
2026-04-13 18:34 52.46027 9.44521 201 ft 24 kts 96°
2026-04-13 18:34 52.46009 9.44761 196 ft 20 kts 99°
2026-04-13 18:34 52.45960 9.44859 208 ft 7 kts 173°
2026-04-13 18:34 52.45924 9.44828 211 ft 4 kts 232°
2026-04-13 18:35 52.45915 9.44754 207 ft 9 kts 271°
2026-04-13 18:35 52.45912 9.44705 204 ft 0 kts 262°
2026-04-13 18:36 52.45911 9.44698 203 ft 3 kts 262°
2026-04-13 18:36 52.45870 9.44255 201 ft 99 kts 262°
2026-04-13 18:36 52.45710 9.42540 480 ft 183 kts 261°
2026-04-13 18:37 52.45566 9.41093 906 ft 204 kts 258°
2026-04-13 18:37 52.44980 9.37849 2065 ft 241 kts 250°
2026-04-13 18:37 52.44432 9.35144 2695 ft 256 kts 249°
2026-04-13 18:37 52.43874 9.32339 2961 ft 261 kts 249°
2026-04-13 18:38 52.43361 9.29474 3013 ft 265 kts 256°
2026-04-13 18:38 52.43401 9.26358 3516 ft 290 kts 283°
2026-04-13 18:38 52.44445 9.23561 4710 ft 294 kts 317°
2026-04-13 18:38 52.46236 9.22077 6321 ft 289 kts 348°
2026-04-13 18:39 52.48222 9.22280 7681 ft 291 kts 20°
2026-04-13 18:39 52.50040 9.23794 8900 ft 296 kts 33°
2026-04-13 18:39 52.51866 9.25449 9634 ft 304 kts 22°
2026-04-13 18:39 52.53959 9.26126 9932 ft 310 kts 359°
2026-04-13 18:40 52.55358 9.25769 9969 ft 308 kts 340°
2026-04-13 18:40 52.57301 9.24256 9971 ft 313 kts 326°
2026-04-13 18:40 52.59067 9.22193 9977 ft 308 kts 318°
2026-04-13 18:40 52.60689 9.19901 9981 ft 311 kts 315°
2026-04-13 18:41 52.62285 9.17479 10019 ft 316 kts 314°
2026-04-13 18:41 52.63945 9.14944 10561 ft 334 kts 314°
2026-04-13 18:41 52.65683 9.12354 11362 ft 335 kts 315°
2026-04-13 18:41 52.67420 9.09838 11831 ft 331 kts 316°
2026-04-13 18:42 52.69165 9.07365 11977 ft 331 kts 317°
2026-04-13 18:42 52.70895 9.04940 11994 ft 331 kts 317°
2026-04-13 18:42 52.72654 9.02490 11987 ft 330 kts 317°
2026-04-13 18:42 52.74411 9.00044 11988 ft 330 kts 317°
2026-04-13 18:43 52.76169 8.97593 11991 ft 330 kts 317°